Location: Taipo
(41.0000°S, 175.9500°E)
Time: 11:34:12
(UTC+00:00)

Cosmos 1869 Rocket - Pass Details

Date: 18 April 2024
Orbit: 600 x 630 km, 82.5° (Epoch: 24 May)

Event Time Altitude Azimuth Distance (km) Brightness Sun altitude
Rises 17:18:01 0° 3° (N) 2,846 7.0 -18.1°
Reaches altitude 10° 17:20:13 10° 7° (N) 1,954 6.2 -17.7°
Maximum altitude 17:24:28 59° 86° (E) 716 4.2 -16.9°
Drops below altitude 10° 17:28:49 10° 164° (SSE) 1,997 6.3 -16.1°
Sets 17:31:05 0° 168° (SSE) 2,915 7.2 -15.6°
